Location: Drocourt
(49.0571°N, 1.7669°E)
Time: 14:13:18
(UTC+00:00)

Vanguard 2 Rocket - Pass Details

Date: 22 April 2024
Orbit: 556 x 3304 km, 32.9° (Epoch: 22 May)

Event Time Altitude Azimuth Distance (km) Brightness Sun altitude
Rises 21:49:13 0° 241° (WSW) 6,205 11.2 -22.7°
Reaches altitude 10° 21:53:08 10° 236° (SW) 5,489 10.8 -23.1°
Maximum altitude 22:09:32 46° 171° (S) 3,979 9.6 -24.4°
Drops below altitude 10° 22:27:32 10° 107° (ESE) 5,989 10.7 -25.6°
Sets 22:32:02 0° 102° (ESE) 6,789 11.1 -25.9°
